Weather in Klyuchi

Russia / Perm Krai     57°00′44″N   57°24′55″E
temp.,
°C
wind,
m/s
gust,
m/s
humid.,
%
clouds,
%
prec.,
mm/h
press.,
hPa
HPBL,
m
17 may, mon
mon1723:00+20sw513525 0.0 1017209
02:00+18sw411585 0.0 1017180
05:00+17ssw48677 0.2 1017110
08:00+20sw51358100 0.0 1016409
11:00+25wsw711425 0.0 1016998
14:00+28wsw8133574 0.0 10162532
17:00+27wsw812427 0.0 10151592
20:00+22nw366382 0.8 1015146
18 may, tue
tue1823:00+18wsw1178100 3.0 101612
02:00+16w48790 0.1 1016135
05:00+14nw33856 0.1 101648
08:00+17nw57740 0.0 1017433
11:00+20nnw566013 0.0 10181408
14:00+22nnw674943 0.0 10182011
17:00+19nne6761100 0.0 10191073
20:00+16ne57710 0.0 1021528
19 may, wed
wed1923:00+12ene38810 0.0 1023200
02:00+10e39860 0.0 1024223
05:00+8ene37900 0.0 1025144
08:00+12ese58705 0.0 1026548
11:00+17ese45495 0.0 10251018
14:00+20ese453993 0.0 10241370
17:00+22ese333594 0.0 10231506
20:00+19e225037 0.0 102313
20 may, thu
thu2023:00+14ese2255100 0.0 102411
02:00+13se22635 0.0 102420
05:00+11s33700 0.0 102530
08:00+16s23570 0.0 1025222
11:00+21ssw22410 0.0 10241110
14:00+24sw12340 0.0 10231664
17:00+24ese22330 0.0 10211713
20:00+20se35510 0.0 102081
21 may, fri
fri2123:00+16s22520 0.0 102017
02:00+14sse225793 0.0 102012
05:00+13sse22626 0.0 102020
08:00+17sse355493 0.0 1020190
11:00+23sse46355 0.0 10191452
14:00+25s57284 0.0 10182321
17:00+25sw573587 0.0 10172624
20:00+20sw495299 0.0 1017272